| time (UTC) | temp F | wind direction | speed MPH | gust MPH | rain 1hr in | rain 24hr in | rain mn in | humidity % | barometer mb |
| 20260901225526 | 99 | 94 | 3.0 | 8.0 | 0.00 | 0.00 | 0.00 | 40 | 1012.2 |
| 20260901225105 | 99 | 53 | 1.0 | 6.0 | 0.00 | 0.00 | 0.00 | 40 | 1012.2 |
| 20260901224512 | 99 | 109 | 1.0 | 7.0 | 0.00 | 0.00 | 0.00 | 41 | 1012.1 |
| 20260901224053 | 99 | 90 | 1.0 | 7.0 | 0.00 | 0.00 | 0.00 | 40 | 1012.2 |
| 20260901223529 | 99 | 86 | 2.0 | 9.0 | 0.00 | 0.00 | 0.00 | 40 | 1012.2 |
| 20260901223050 | 99 | 36 | 2.0 | 9.0 | 0.00 | 0.00 | 0.00 | 40 | 1012.2 |
| 20260901222516 | 99 | 117 | 3.0 | 9.0 | 0.00 | 0.00 | 0.00 | 42 | 1012.2 |
| 20260901222058 | 99 | 93 | 0.0 | 7.0 | 0.00 | 0.00 | 0.00 | 42 | 1012.2 |
| 20260901221504 | 99 | 138 | 3.0 | 7.0 | 0.00 | 0.00 | 0.00 | 39 | 1012.2 |
| 20260901221046 | 99 | 211 | 1.0 | 9.0 | 0.00 | 0.00 | 0.00 | 39 | 1012.1 |
| 20260901220525 | 99 | 173 | 3.0 | 10.0 | 0.00 | 0.00 | 0.00 | 39 | 1012.2 |
| 20260901220033 | 99 | 138 | 3.0 | 10.0 | 0.00 | 0.00 | 0.00 | 39 | 1012.3 |
| 20260901215511 | 99 | 140 | 1.0 | 8.0 | 0.00 | 0.00 | 0.00 | 40 | 1012.3 |
| 20260901215054 | 98 | 70 | 2.0 | 8.0 | 0.00 | 0.00 | 0.00 | 42 | 1012.3 |
| 20260901214501 | 98 | 63 | 2.0 | 9.0 | 0.00 | 0.00 | 0.00 | 42 | 1012.4 |
| 20260901214043 | 98 | 134 | 3.0 | 9.0 | 0.00 | 0.00 | 0.00 | 40 | 1012.3 |
| 20260901213520 | 99 | 32 | 2.0 | 7.0 | 0.00 | 0.00 | 0.00 | 40 | 1012.3 |
| 20260901213039 | 100 | 119 | 2.0 | 9.0 | 0.00 | 0.00 | 0.00 | 39 | 1012.4 |
| 20260901212507 | 100 | 67 | 2.0 | 9.0 | 0.00 | 0.00 | 0.00 | 39 | 1012.4 |
| 20260901212048 | 100 | 80 | 4.0 | 9.0 | 0.00 | 0.00 | 0.00 | 40 | 1012.4 |
| 20260901211600 | 100 | 59 | 2.0 | 5.0 | 0.00 | 0.00 | 0.00 | 39 | 1012.4 |
| 20260901211035 | 99 | 152 | 2.0 | 10.0 | 0.00 | 0.00 | 0.00 | 39 | 1012.6 |
| 20260901210512 | 99 | 132 | 2.0 | 11.0 | 0.00 | 0.00 | 0.00 | 41 | 1012.6 |
| 20260901210034 | 99 | 121 | 5.0 | 11.0 | 0.00 | 0.00 | 0.00 | 40 | 1012.7 |
| 20260901205602 | 98 | 136 | 3.0 | 10.0 | 0.00 | 0.00 | 0.00 | 40 | 1012.8 |
| 20260901205039 | 99 | 146 | 3.0 | 10.0 | 0.00 | 0.00 | 0.00 | 39 | 1012.8 |
| 20260901204550 | 99 | 144 | 4.0 | 10.0 | 0.00 | 0.00 | 0.00 | 40 | 1012.9 |
| 20260901204029 | 99 | 117 | 4.0 | 10.0 | 0.00 | 0.00 | 0.00 | 41 | 1012.9 |
| 20260901203507 | 99 | 132 | 5.0 | 9.0 | 0.00 | 0.00 | 0.00 | 39 | 1012.8 |
| 20260901203020 | 100 | 63 | 3.0 | 11.0 | 0.00 | 0.00 | 0.00 | 41 | 1013.0 |
| 20260901202559 | 100 | 122 | 6.0 | 11.0 | 0.00 | 0.00 | 0.00 | 40 | 1013.1 |
| 20260901202040 | 99 | 224 | 1.0 | 8.0 | 0.00 | 0.00 | 0.00 | 41 | 1013.1 |
| 20260901201552 | 99 | 88 | 1.0 | 10.0 | 0.00 | 0.00 | 0.00 | 40 | 1013.3 |
| 20260901201029 | 99 | 122 | 4.0 | 10.0 | 0.00 | 0.00 | 0.00 | 41 | 1013.4 |
| 20260901200505 | 99 | 72 | 3.0 | 12.0 | 0.00 | 0.00 | 0.00 | 43 | 1013.5 |
| 20260901200037 | 99 | 153 | 3.0 | 12.0 | 0.00 | 0.00 | 0.00 | 43 | 1013.5 |
| 20260901195558 | 98 | 344 | 1.0 | 9.0 | 0.00 | 0.00 | 0.00 | 43 | 1013.5 |
| 20260901195035 | 98 | 87 | 4.0 | 9.0 | 0.00 | 0.00 | 0.00 | 42 | 1013.7 |
| 20260901194556 | 98 | 135 | 3.0 | 9.0 | 0.00 | 0.00 | 0.00 | 42 | 1013.7 |
| 20260901194022 | 98 | 136 | 2.0 | 9.0 | 0.00 | 0.00 | 0.00 | 42 | 1013.9 |
| 20260901193603 | 99 | 130 | 4.0 | 12.0 | 0.00 | 0.00 | 0.00 | 43 | 1013.8 |
| 20260901193010 | 99 | 64 | 2.0 | 6.0 | 0.00 | 0.00 | 0.00 | 44 | 1013.9 |
| 20260901192550 | 98 | 281 | 1.0 | 6.0 | 0.00 | 0.00 | 0.00 | 44 | 1014.0 |
| 20260901192027 | 98 | 169 | 3.0 | 7.0 | 0.00 | 0.00 | 0.00 | 43 | 1014.1 |
| 20260901191538 | 98 | 93 | 3.0 | 10.0 | 0.00 | 0.00 | 0.00 | 44 | 1014.2 |
| 20260901191020 | 98 | 109 | 4.0 | 15.0 | 0.00 | 0.00 | 0.00 | 45 | 1014.2 |
| 20260901190555 | 98 | 138 | 3.0 | 15.0 | 0.00 | 0.00 | 0.00 | 43 | 1014.3 |
| 20260901190002 | 98 | 115 | 2.0 | 8.0 | 0.00 | 0.00 | 0.00 | 46 | 1014.3 |
| 20260901185542 | 97 | 84 | 2.0 | 5.0 | 0.00 | 0.00 | 0.00 | 45 | 1014.4 |
| 20260901185016 | 97 | 261 | 2.0 | 6.0 | 0.00 | 0.00 | 0.00 | 44 | 1014.5 |
| 20260901184528 | 97 | 146 | 3.0 | 8.0 | 0.00 | 0.00 | 0.00 | 47 | 1014.6 |
| 20260901184004 | 97 | 137 | 1.0 | 8.0 | 0.00 | 0.00 | 0.00 | 46 | 1014.7 |
| 20260901183547 | 97 | 248 | 2.0 | 5.0 | 0.00 | 0.00 | 0.00 | 45 | 1014.7 |
| 20260901183055 | 97 | 360 | 1.0 | 8.0 | 0.00 | 0.00 | 0.00 | 46 | 1014.9 |
| 20260901182533 | 96 | 350 | 2.0 | 8.0 | 0.00 | 0.00 | 0.00 | 46 | 1015.0 |
| 20260901182008 | 96 | 136 | 2.0 | 10.0 | 0.00 | 0.00 | 0.00 | 47 | 1015.0 |
| 20260901181522 | 95 | 161 | 4.0 | 11.0 | 0.00 | 0.00 | 0.00 | 48 | 1015.1 |
| 20260901181100 | 95 | 117 | 4.0 | 10.0 | 0.00 | 0.00 | 0.00 | 46 | 1015.2 |
| 20260901180538 | 95 | 162 | 5.0 | 9.0 | 0.00 | 0.00 | 0.00 | 47 | 1015.2 |
| 20260901180047 | 95 | 71 | 3.0 | 8.0 | 0.00 | 0.00 | 0.00 | 50 | 1015.2 |
| 20260901175524 | 95 | 72 | 1.0 | 5.0 | 0.00 | 0.00 | 0.00 | 47 | 1015.4 |
| 20260901175101 | 94 | 71 | 2.0 | 7.0 | 0.00 | 0.00 | 0.00 | 49 | 1015.4 |
| 20260901174508 | 94 | 105 | 3.0 | 7.0 | 0.00 | 0.00 | 0.00 | 48 | 1015.5 |
| 20260901174049 | 94 | 145 | 3.0 | 9.0 | 0.00 | 0.00 | 0.00 | 51 | 1015.6 |
| 20260901173526 | 94 | 134 | 3.0 | 8.0 | 0.00 | 0.00 | 0.00 | 50 | 1015.6 |
| 20260901173038 | 93 | 250 | 1.0 | 10.0 | 0.00 | 0.00 | 0.00 | 52 | 1015.8 |
| 20260901172514 | 94 | 122 | 5.0 | 10.0 | 0.00 | 0.00 | 0.00 | 49 | 1015.8 |
| 20260901172055 | 94 | 132 | 2.0 | 7.0 | 0.00 | 0.00 | 0.00 | 53 | 1015.9 |
| 20260901171502 | 93 | 68 | 2.0 | 9.0 | 0.00 | 0.00 | 0.00 | 53 | 1016.0 |
| 20260901171045 | 93 | 117 | 3.0 | 9.0 | 0.00 | 0.00 | 0.00 | 51 | 1016.1 |
| 20260901170526 | 93 | 146 | 2.0 | 9.0 | 0.00 | 0.00 | 0.00 | 50 | 1016.1 |
| 20260901170112 | 93 | 40 | 1.0 | 6.0 | 0.00 | 0.00 | 0.00 | 52 | 1016.2 |
| 20260901165516 | 93 | 69 | 2.0 | 8.0 | 0.00 | 0.00 | 0.00 | 54 | 1016.1 |
| 20260901165100 | 92 | 103 | 3.0 | 8.0 | 0.00 | 0.00 | 0.00 | 54 | 1016.1 |
| 20260901164513 | 92 | 59 | 2.0 | 5.0 | 0.00 | 0.00 | 0.00 | 54 | 1016.1 |
| 20260901164051 | 91 | 71 | 2.0 | 6.0 | 0.00 | 0.00 | 0.00 | 57 | 1016.3 |
| 20260901163530 | 90 | 48 | 3.0 | 7.0 | 0.00 | 0.00 | 0.00 | 56 | 1016.3 |
| 20260901163044 | 90 | 153 | 2.0 | 7.0 | 0.00 | 0.00 | 0.00 | 57 | 1016.4 |
| 20260901162518 | 90 | 138 | 1.0 | 8.0 | 0.00 | 0.00 | 0.00 | 58 | 1016.5 |
| 20260901162101 | 90 | 145 | 2.0 | 8.0 | 0.00 | 0.00 | 0.00 | 56 | 1016.6 |
| 20260901161513 | 90 | 223 | 1.0 | 8.0 | 0.00 | 0.00 | 0.00 | 56 | 1016.6 |
| 20260901161053 | 90 | 158 | 2.0 | 8.0 | 0.00 | 0.00 | 0.00 | 56 | 1016.6 |
| 20260901160533 | 90 | 170 | 3.0 | 7.0 | 0.00 | 0.00 | 0.00 | 56 | 1016.6 |
| 20260901160104 | 90 | 176 | 1.0 | 4.0 | 0.00 | 0.00 | 0.00 | 59 | 1016.7 |
| 20260901155543 | 89 | 240 | 1.0 | 3.0 | 0.00 | 0.00 | 0.00 | 60 | 1016.7 |
| 20260901155025 | 89 | 210 | 1.0 | 5.0 | 0.00 | 0.00 | 0.00 | 61 | 1016.6 |
| 20260901154532 | 89 | 142 | 1.0 | 4.0 | 0.00 | 0.00 | 0.00 | 60 | 1016.6 |
| 20260901154008 | 88 | 142 | 1.0 | 5.0 | 0.00 | 0.00 | 0.00 | 61 | 1016.5 |
| 20260901153550 | 88 | 142 | 2.0 | 5.0 | 0.00 | 0.00 | 0.00 | 62 | 1016.5 |
| 20260901153124 | 88 | 142 | 0.0 | 5.0 | 0.00 | 0.00 | 0.00 | 63 | 1016.4 |
| 20260901152537 | 87 | 142 | 1.0 | 5.0 | 0.00 | 0.00 | 0.00 | 63 | 1016.5 |
| 20260901152015 | 87 | 219 | 1.0 | 3.0 | 0.00 | 0.00 | 0.00 | 63 | 1016.4 |
| 20260901151525 | 87 | 219 | 0.0 | 3.0 | 0.00 | 0.00 | 0.00 | 64 | 1016.5 |
| 20260901151002 | 86 | 220 | 1.0 | 3.0 | 0.00 | 0.00 | 0.00 | 66 | 1016.5 |
| 20260901150546 | 86 | 225 | 0.0 | 2.0 | 0.00 | 0.00 | 0.00 | 69 | 1016.5 |
| 20260901150054 | 85 | 225 | 0.0 | 4.0 | 0.00 | 0.00 | 0.00 | 69 | 1016.6 |
| 20260901145530 | 85 | 225 | 0.0 | 4.0 | 0.00 | 0.00 | 0.00 | 70 | 1016.7 |
| 20260901145007 | 84 | 236 | 1.0 | 4.0 | 0.00 | 0.00 | 0.00 | 72 | 1016.7 |
| 20260901144519 | 84 | 170 | 2.0 | 4.0 | 0.00 | 0.00 | 0.00 | 73 | 1016.6 |
| 20260901144102 | 83 | 246 | 0.0 | 2.0 | 0.00 | 0.00 | 0.00 | 75 | 1016.7 |
| 20260901143541 | 83 | 246 | 0.0 | 3.0 | 0.00 | 0.00 | 0.00 | 77 | 1016.7 |
| 20260901143055 | 82 | 246 | 1.0 | 4.0 | 0.00 | 0.00 | 0.00 | 78 | 1016.7 |
| 20260901142534 | 82 | 246 | 1.0 | 4.0 | 0.00 | 0.00 | 0.00 | 79 | 1016.8 |
| 20260901142012 | 82 | 242 | 1.0 | 4.0 | 0.00 | 0.00 | 0.00 | 81 | 1016.8 |
| 20260901141534 | 81 | 242 | 0.0 | 4.0 | 0.00 | 0.00 | 0.00 | 82 | 1016.8 |
| 20260901141001 | 80 | 242 | 2.0 | 4.0 | 0.00 | 0.00 | 0.00 | 83 | 1016.9 |
| 20260901140543 | 80 | 241 | 0.0 | 4.0 | 0.00 | 0.00 | 0.00 | 84 | 1016.9 |
| 20260901140054 | 79 | 239 | 1.0 | 4.0 | 0.00 | 0.00 | 0.00 | 86 | 1016.9 |
| 20260901135531 | 78 | 178 | 0.0 | 2.0 | 0.00 | 0.00 | 0.00 | 87 | 1016.9 |
| 20260901135008 | 77 | 154 | 0.0 | 1.0 | 0.00 | 0.00 | 0.00 | 89 | 1016.9 |
| 20260901134519 | 77 | 153 | 0.0 | 2.0 | 0.00 | 0.00 | 0.00 | 89 | 1016.8 |
| 20260901134059 | 76 | 153 | 0.0 | 2.0 | 0.00 | 0.00 | 0.00 | 89 | 1016.8 |
| 20260901133537 | 76 | 153 | 0.0 | 2.0 | 0.00 | 0.00 | 0.00 | 90 | 1016.9 |
| 20260901133047 | 75 | 153 | 0.0 | 1.0 | 0.00 | 0.00 | 0.00 | 90 | 1016.8 |
| 20260901132524 | 75 | 153 | 0.0 | 2.0 | 0.00 | 0.00 | 0.00 | 90 | 1016.8 |
| 20260901132106 | 75 | 153 | 0.0 | 2.0 | 0.00 | 0.00 | 0.00 | 90 | 1016.8 |
| 20260901131519 | 74 | 153 | 0.0 | 1.0 | 0.00 | 0.00 | 0.00 | 90 | 1016.7 |
| 20260901131053 | 74 | 153 | 0.0 | 0.0 | 0.00 | 0.00 | 0.00 | 90 | 1016.6 |
| 20260901130530 | 74 | 153 | 0.0 | 0.0 | 0.00 | 0.00 | 0.00 | 90 | 1016.5 |
| 20260901130055 | 74 | 153 | 0.0 | 0.0 | 0.00 | 0.00 | 0.00 | 90 | 1016.4 |
| 20260901125517 | 74 | 153 | 0.0 | 0.0 | 0.00 | 0.00 | 0.00 | 90 | 1016.3 |
| 20260901125058 | 73 | 153 | 0.0 | 0.0 | 0.00 | 0.00 | 0.00 | 90 | 1016.2 |
| 20260901124505 | 73 | 153 | 0.0 | 0.0 | 0.00 | 0.00 | 0.00 | 90 | 1016.3 |
| 20260901124047 | 73 | 153 | 0.0 | 0.0 | 0.00 | 0.00 | 0.00 | 90 | 1016.2 |
| 20260901123523 | 74 | 153 | 0.0 | 0.0 | 0.00 | 0.00 | 0.00 | 90 | 1016.2 |
| 20260901123040 | 74 | 153 | 0.0 | 0.0 | 0.00 | 0.00 | 0.00 | 90 | 1016.1 |
| 20260901122511 | 74 | 153 | 0.0 | 0.0 | 0.00 | 0.00 | 0.00 | 90 | 1016.0 |
| 20260901122052 | 74 | 153 | 0.0 | 0.0 | 0.00 | 0.00 | 0.00 | 90 | 1016.0 |
| 20260901121603 | 74 | 153 | 0.0 | 0.0 | 0.00 | 0.00 | 0.00 | 89 | 1015.9 |
| 20260901121039 | 74 | 153 | 0.0 | 0.0 | 0.00 | 0.00 | 0.00 | 89 | 1015.8 |
| 20260901120516 | 74 | 153 | 0.0 | 0.0 | 0.00 | 0.00 | 0.00 | 89 | 1015.7 |
| 20260901120027 | 74 | 153 | 0.0 | 0.0 | 0.00 | 0.00 | 0.00 | 89 | 1015.8 |
| 20260901115503 | 74 | 153 | 0.0 | 0.0 | 0.00 | 0.00 | 0.00 | 89 | 1015.7 |
| 20260901115044 | 74 | 153 | 0.0 | 0.0 | 0.00 | 0.00 | 0.00 | 88 | 1015.8 |
| 20260901114556 | 74 | 153 | 0.0 | 0.0 | 0.00 | 0.00 | 0.00 | 88 | 1015.8 |
| 20260901114035 | 74 | 153 | 0.0 | 0.0 | 0.00 | 0.00 | 0.00 | 88 | 1015.8 |
| 20260901113509 | 75 | 154 | 0.0 | 0.0 | 0.00 | 0.00 | 0.00 | 88 | 1015.8 |
| 20260901113019 | 75 | 153 | 0.0 | 0.0 | 0.00 | 0.00 | 0.00 | 88 | 1015.7 |
| 20260901112600 | 75 | 153 | 0.0 | 0.0 | 0.00 | 0.00 | 0.00 | 88 | 1015.7 |
| 20260901112039 | 75 | 153 | 0.0 | 0.0 | 0.00 | 0.00 | 0.00 | 87 | 1015.7 |
| 20260901111548 | 75 | 154 | 0.0 | 0.0 | 0.00 | 0.00 | 0.00 | 87 | 1015.8 |
| 20260901111025 | 75 | 153 | 0.0 | 0.0 | 0.00 | 0.00 | 0.00 | 87 | 1015.8 |
| 20260901110501 | 76 | 153 | 0.0 | 0.0 | 0.00 | 0.00 | 0.00 | 87 | 1015.7 |
| 20260901110017 | 76 | 153 | 0.0 | 0.0 | 0.00 | 0.00 | 0.00 | 86 | 1015.7 |
| 20260901105553 | 76 | 153 | 0.0 | 0.0 | 0.00 | 0.00 | 0.00 | 86 | 1015.6 |
| 20260901105029 | 76 | 153 | 0.0 | 0.0 | 0.00 | 0.00 | 0.00 | 85 | 1015.6 |
| 20260901104537 | 76 | 153 | 0.0 | 0.0 | 0.00 | 0.00 | 0.00 | 85 | 1015.6 |
| 20260901104015 | 76 | 153 | 0.0 | 0.0 | 0.00 | 0.00 | 0.00 | 85 | 1015.7 |
| 20260901103556 | 77 | 153 | 0.0 | 0.0 | 0.00 | 0.00 | 0.00 | 85 | 1015.7 |
| 20260901103004 | 77 | 153 | 0.0 | 0.0 | 0.00 | 0.00 | 0.00 | 85 | 1015.7 |
| 20260901102547 | 77 | 153 | 0.0 | 0.0 | 0.00 | 0.00 | 0.00 | 84 | 1015.6 |
| 20260901102022 | 77 | 153 | 0.0 | 1.0 | 0.00 | 0.00 | 0.00 | 84 | 1015.5 |
| 20260901101541 | 77 | 153 | 0.0 | 1.0 | 0.00 | 0.00 | 0.00 | 85 | 1015.5 |
| 20260901101010 | 77 | 153 | 0.0 | 1.0 | 0.00 | 0.00 | 0.00 | 84 | 1015.4 |
| 20260901100551 | 77 | 153 | 0.0 | 1.0 | 0.00 | 0.00 | 0.00 | 84 | 1015.3 |
| 20260901100111 | 77 | 153 | 0.0 | 1.0 | 0.00 | 0.00 | 0.00 | 84 | 1015.4 |
| 20260901095539 | 77 | 153 | 0.0 | 0.0 | 0.00 | 0.00 | 0.00 | 83 | 1015.4 |
| 20260901095016 | 77 | 153 | 0.0 | 0.0 | 0.00 | 0.00 | 0.00 | 83 | 1015.5 |
| 20260901094529 | 77 | 153 | 0.0 | 0.0 | 0.00 | 0.00 | 0.00 | 83 | 1015.5 |
| 20260901094004 | 78 | 153 | 0.0 | 0.0 | 0.00 | 0.00 | 0.00 | 82 | 1015.4 |
| 20260901093544 | 78 | 153 | 0.0 | 0.0 | 0.00 | 0.00 | 0.00 | 81 | 1015.6 |
| 20260901093056 | 78 | 153 | 0.0 | 0.0 | 0.00 | 0.00 | 0.00 | 81 | 1015.6 |
| 20260901092533 | 78 | 153 | 0.0 | 1.0 | 0.00 | 0.00 | 0.00 | 80 | 1015.6 |
| 20260901092012 | 78 | 153 | 0.0 | 3.0 | 0.00 | 0.00 | 0.00 | 80 | 1015.6 |
| 20260901091520 | 78 | 153 | 0.0 | 3.0 | 0.00 | 0.00 | 0.00 | 81 | 1015.6 |
| 20260901091101 | 78 | 153 | 1.0 | 2.0 | 0.00 | 0.00 | 0.00 | 80 | 1015.6 |
| 20260901090538 | 78 | 149 | 0.0 | 2.0 | 0.00 | 0.00 | 0.00 | 79 | 1015.5 |
| 20260901090049 | 79 | 149 | 0.0 | 0.0 | 0.00 | 0.00 | 0.00 | 78 | 1015.5 |
| 20260901085525 | 79 | 149 | 0.0 | 0.0 | 0.00 | 0.00 | 0.00 | 78 | 1015.6 |
| 20260901085002 | 79 | 149 | 0.0 | 1.0 | 0.00 | 0.00 | 0.00 | 77 | 1015.5 |
| 20260901084513 | 79 | 149 | 0.0 | 3.0 | 0.00 | 0.00 | 0.00 | 77 | 1015.5 |
| 20260901084054 | 79 | 149 | 1.0 | 5.0 | 0.00 | 0.00 | 0.00 | 77 | 1015.3 |
| 20260901083531 | 79 | 149 | 2.0 | 5.0 | 0.00 | 0.00 | 0.00 | 77 | 1015.2 |
| 20260901083048 | 79 | 150 | 1.0 | 2.0 | 0.00 | 0.00 | 0.00 | 77 | 1015.3 |
| 20260901082519 | 79 | 150 | 0.0 | 2.0 | 0.00 | 0.00 | 0.00 | 77 | 1015.3 |
| 20260901082102 | 80 | 150 | 0.0 | 1.0 | 0.00 | 0.00 | 0.00 | 76 | 1015.3 |
| 20260901081505 | 80 | 150 | 0.0 | 1.0 | 0.00 | 0.00 | 0.00 | 76 | 1015.3 |
| 20260901081047 | 80 | 150 | 0.0 | 3.0 | 0.00 | 0.00 | 0.00 | 76 | 1015.3 |
| 20260901080525 | 80 | 150 | 0.0 | 3.0 | 0.00 | 0.00 | 0.00 | 75 | 1015.3 |
| 20260901080035 | 80 | 150 | 0.0 | 2.0 | 0.00 | 0.00 | 0.00 | 75 | 1015.3 |
| 20260901075511 | 81 | 150 | 0.0 | 2.0 | 0.00 | 0.00 | 0.00 | 75 | 1015.4 |
| 20260901075053 | 81 | 150 | 1.0 | 3.0 | 0.00 | 0.00 | 0.00 | 75 | 1015.5 |
| 20260901074603 | 81 | 150 | 1.0 | 3.0 | 0.00 | 0.00 | 0.00 | 74 | 1015.4 |
| 20260901074042 | 81 | 150 | 0.0 | 5.0 | 0.00 | 0.00 | 0.00 | 74 | 1015.4 |
| 20260901073516 | 81 | 150 | 1.0 | 3.0 | 0.00 | 0.00 | 0.00 | 74 | 1015.5 |
| 20260901073036 | 81 | 150 | 2.0 | 4.0 | 0.00 | 0.00 | 0.00 | 74 | 1015.5 |
| 20260901072504 | 81 | 153 | 1.0 | 3.0 | 0.00 | 0.00 | 0.00 | 74 | 1015.5 |
| 20260901072045 | 82 | 153 | 1.0 | 5.0 | 0.00 | 0.00 | 0.00 | 74 | 1015.5 |
| 20260901071556 | 82 | 153 | 1.0 | 5.0 | 0.00 | 0.00 | 0.00 | 73 | 1015.6 |
| 20260901071033 | 82 | 153 | 1.0 | 3.0 | 0.00 | 0.00 | 0.00 | 73 | 1015.5 |
| 20260901070509 | 82 | 153 | 1.0 | 3.0 | 0.00 | 0.00 | 0.00 | 72 | 1015.6 |
| 20260901070023 | 82 | 153 | 1.0 | 5.0 | 0.00 | 0.00 | 0.00 | 72 | 1015.7 |
| 20260901065604 | 82 | 153 | 1.0 | 5.0 | 0.00 | 0.00 | 0.00 | 72 | 1015.7 |
| 20260901065038 | 82 | 150 | 1.0 | 5.0 | 0.00 | 0.00 | 0.00 | 71 | 1015.6 |
| 20260901064549 | 83 | 135 | 2.0 | 5.0 | 0.00 | 0.00 | 0.00 | 71 | 1015.5 |
| 20260901064026 | 83 | 144 | 2.0 | 5.0 | 0.00 | 0.00 | 0.00 | 71 | 1015.5 |
| 20260901063502 | 83 | 142 | 2.0 | 8.0 | 0.00 | 0.00 | 0.00 | 70 | 1015.4 |
| 20260901063015 | 83 | 145 | 3.0 | 8.0 | 0.00 | 0.00 | 0.00 | 70 | 1015.3 |
| 20260901062555 | 83 | 150 | 2.0 | 7.0 | 0.00 | 0.00 | 0.00 | 70 | 1015.2 |
| 20260901062033 | 83 | 185 | 2.0 | 7.0 | 0.00 | 0.00 | 0.00 | 70 | 1015.2 |
| 20260901061551 | 83 | 166 | 3.0 | 7.0 | 0.00 | 0.00 | 0.00 | 69 | 1015.2 |
| 20260901061019 | 83 | 152 | 2.0 | 7.0 | 0.00 | 0.00 | 0.00 | 69 | 1015.2 |
| 20260901060603 | 83 | 145 | 2.0 | 7.0 | 0.00 | 0.00 | 0.00 | 68 | 1015.2 |
| 20260901060009 | 84 | 161 | 3.0 | 7.0 | 0.00 | 0.00 | 0.00 | 68 | 1015.1 |
| 20260901055550 | 84 | 183 | 3.0 | 8.0 | 0.00 | 0.00 | 0.00 | 68 | 1015.1 |
| 20260901055024 | 84 | 148 | 4.0 | 8.0 | 0.00 | 0.00 | 0.00 | 67 | 1015.1 |
| 20260901054536 | 84 | 154 | 2.0 | 7.0 | 0.00 | 0.00 | 0.00 | 67 | 1015.1 |
| 20260901054011 | 84 | 152 | 2.0 | 8.0 | 0.00 | 0.00 | 0.00 | 67 | 1015.0 |
| 20260901053553 | 84 | 157 | 3.0 | 8.0 | 0.00 | 0.00 | 0.00 | 66 | 1015.0 |
| 20260901053124 | 84 | 142 | 2.0 | 6.0 | 0.00 | 0.00 | 0.00 | 66 | 1014.9 |
| 20260901052540 | 84 | 162 | 3.0 | 8.0 | 0.00 | 0.00 | 0.00 | 66 | 1014.9 |
| 20260901052016 | 84 | 148 | 4.0 | 8.0 | 0.00 | 0.00 | 0.00 | 65 | 1014.8 |
| 20260901051531 | 85 | 173 | 2.0 | 9.0 | 0.00 | 0.00 | 0.00 | 65 | 1014.8 |
| 20260901051003 | 85 | 145 | 4.0 | 9.0 | 0.00 | 0.00 | 0.00 | 65 | 1014.8 |
| 20260901050544 | 85 | 159 | 4.0 | 8.0 | 0.00 | 0.00 | 0.00 | 64 | 1014.8 |
| 20260901050058 | 85 | 175 | 4.0 | 8.0 | 0.00 | 0.00 | 0.00 | 64 | 1014.8 |
| 20260901045532 | 85 | 140 | 3.0 | 12.0 | 0.00 | 0.00 | 0.00 | 63 | 1014.8 |
| 20260901045009 | 85 | 138 | 4.0 | 8.0 | 0.00 | 0.00 | 0.00 | 63 | 1014.7 |
| 20260901044520 | 85 | 195 | 4.0 | 8.0 | 0.00 | 0.00 | 0.00 | 63 | 1014.7 |
| 20260901044101 | 85 | 150 | 3.0 | 8.0 | 0.00 | 0.00 | 0.00 | 63 | 1014.7 |
| 20260901043538 | 86 | 182 | 4.0 | 12.0 | 0.00 | 0.00 | 0.00 | 63 | 1014.7 |
| 20260901043049 | 86 | 142 | 3.0 | 12.0 | 0.00 | 0.00 | 0.00 | 63 | 1014.7 |
| 20260901042525 | 86 | 147 | 4.0 | 8.0 | 0.00 | 0.00 | 0.00 | 62 | 1014.6 |
| 20260901042002 | 86 | 175 | 2.0 | 9.0 | 0.00 | 0.00 | 0.00 | 62 | 1014.6 |
| 20260901041512 | 86 | 155 | 4.0 | 9.0 | 0.00 | 0.00 | 0.00 | 61 | 1014.6 |
| 20260901041053 | 86 | 163 | 4.0 | 14.0 | 0.00 | 0.00 | 0.00 | 61 | 1014.5 |
| 20260901040530 | 87 | 141 | 4.0 | 14.0 | 0.00 | 0.00 | 0.00 | 60 | 1014.6 |
| 20260901040041 | 87 | 154 | 4.0 | 12.0 | 0.00 | 0.00 | 0.00 | 60 | 1014.5 |
| 20260901035521 | 87 | 165 | 5.0 | 12.0 | 0.00 | 0.00 | 0.00 | 59 | 1014.6 |
| 20260901035058 | 86 | 170 | 5.0 | 12.0 | 0.00 | 0.00 | 0.00 | 59 | 1014.6 |
| 20260901034510 | 86 | 139 | 5.0 | 11.0 | 0.00 | 0.00 | 0.00 | 59 | 1014.5 |
| 20260901034043 | 85 | 150 | 4.0 | 10.0 | 0.00 | 0.00 | 0.00 | 59 | 1014.5 |
| 20260901033518 | 84 | 130 | 3.0 | 9.0 | 0.00 | 0.00 | 0.00 | 58 | 1014.5 |
| 20260901033029 | 83 | 154 | 2.0 | 6.0 | 0.00 | 0.00 | 0.00 | 57 | 1014.4 |
| 20260901032506 | 82 | 86 | 1.0 | 3.0 | 0.00 | 0.00 | 0.00 | 57 | 1014.3 |
| 20260901032047 | 82 | 86 | 1.0 | 3.0 | 0.00 | 0.00 | 0.00 | 58 | 1014.2 |
| 20260901031610 | 82 | 84 | 0.0 | 0.0 | 0.00 | 0.00 | 0.00 | 58 | 1014.2 |
| 20260901031034 | 82 | 84 | 0.0 | 0.0 | 0.00 | 0.00 | 0.00 | 59 | 1014.2 |
| 20260901030511 | 82 | 84 | 0.0 | 0.0 | 0.00 | 0.00 | 0.00 | 59 | 1014.1 |
| 20260901030024 | 82 | 84 | 0.0 | 0.0 | 0.00 | 0.00 | 0.00 | 58 | 1014.1 |
| 20260901025603 | 82 | 84 | 0.0 | 0.0 | 0.00 | 0.00 | 0.00 | 59 | 1013.9 |
| 20260901025040 | 82 | 84 | 0.0 | 0.0 | 0.00 | 0.00 | 0.00 | 59 | 1013.8 |
| 20260901024551 | 83 | 84 | 0.0 | 0.0 | 0.00 | 0.00 | 0.00 | 58 | 1013.8 |
| 20260901024029 | 83 | 84 | 0.0 | 0.0 | 0.00 | 0.00 | 0.00 | 57 | 1013.8 |
| 20260901023503 | 83 | 84 | 0.0 | 0.0 | 0.00 | 0.00 | 0.00 | 58 | 1013.7 |
| 20260901023014 | 84 | 84 | 0.0 | 0.0 | 0.00 | 0.00 | 0.00 | 57 | 1013.6 |
| 20260901022556 | 84 | 84 | 0.0 | 0.0 | 0.00 | 0.00 | 0.00 | 56 | 1013.5 |
| 20260901022034 | 85 | 84 | 0.0 | 0.0 | 0.00 | 0.00 | 0.00 | 55 | 1013.5 |
| 20260901021543 | 85 | 84 | 0.0 | 0.0 | 0.00 | 0.00 | 0.00 | 55 | 1013.4 |
| 20260901021020 | 86 | 84 | 0.0 | 0.0 | 0.00 | 0.00 | 0.00 | 53 | 1013.4 |
| 20260901020601 | 86 | 84 | 0.0 | 0.0 | 0.00 | 0.00 | 0.00 | 52 | 1013.3 |
| 20260901020008 | 87 | 84 | 0.0 | 0.0 | 0.00 | 0.00 | 0.00 | 51 | 1013.3 |
| 20260901015549 | 87 | 84 | 0.0 | 0.0 | 0.00 | 0.00 | 0.00 | 50 | 1013.2 |
| 20260901015025 | 88 | 84 | 0.0 | 0.0 | 0.00 | 0.00 | 0.00 | 49 | 1013.1 |
| 20260901014536 | 88 | 84 | 0.0 | 0.0 | 0.00 | 0.00 | 0.00 | 48 | 1013.0 |
| 20260901014015 | 89 | 84 | 0.0 | 0.0 | 0.00 | 0.00 | 0.00 | 46 | 1013.0 |
| 20260901013555 | 89 | 84 | 0.0 | 0.0 | 0.00 | 0.00 | 0.00 | 46 | 1013.0 |
| 20260901013001 | 90 | 84 | 0.0 | 0.0 | 0.00 | 0.00 | 0.00 | 44 | 1013.0 |
| 20260901012542 | 91 | 84 | 0.0 | 0.0 | 0.00 | 0.00 | 0.00 | 44 | 1013.0 |
| 20260901012022 | 91 | 84 | 0.0 | 1.0 | 0.00 | 0.00 | 0.00 | 43 | 1012.9 |
| 20260901011530 | 91 | 84 | 0.0 | 1.0 | 0.00 | 0.00 | 0.00 | 43 | 1012.9 |
| 20260901011009 | 92 | 84 | 0.0 | 2.0 | 0.00 | 0.00 | 0.00 | 42 | 1012.9 |
| 20260901010547 | 92 | 84 | 0.0 | 3.0 | 0.00 | 0.00 | 0.00 | 41 | 1012.9 |
| 20260901010058 | 92 | 84 | 0.0 | 4.0 | 0.00 | 0.00 | 0.00 | 41 | 1012.8 |
| 20260901005537 | 93 | 113 | 1.0 | 4.0 | 0.00 | 0.00 | 0.00 | 41 | 1012.8 |
| 20260901005013 | 93 | 134 | 1.0 | 4.0 | 0.00 | 0.00 | 0.00 | 40 | 1012.7 |
| 20260901004522 | 93 | 134 | 1.0 | 4.0 | 0.00 | 0.00 | 0.00 | 40 | 1012.8 |
| 20260901004107 | 94 | 86 | 1.0 | 9.0 | 0.00 | 0.00 | 0.00 | 40 | 1012.8 |
| 20260901003540 | 94 | 88 | 1.0 | 9.0 | 0.00 | 0.00 | 0.00 | 40 | 1012.9 |
| 20260901003052 | 94 | 126 | 1.0 | 4.0 | 0.00 | 0.00 | 0.00 | 40 | 1012.8 |
| 20260901002528 | 95 | 126 | 0.0 | 5.0 | 0.00 | 0.00 | 0.00 | 39 | 1012.7 |
| 20260901002007 | 95 | 126 | 2.0 | 8.0 | 0.00 | 0.00 | 0.00 | 39 | 1012.7 |
| 20260901001523 | 96 | 125 | 1.0 | 6.0 | 0.00 | 0.00 | 0.00 | 39 | 1012.7 |
| 20260901001056 | 96 | 125 | 1.0 | 4.0 | 0.00 | 0.00 | 0.00 | 38 | 1012.6 |
| 20260901000534 | 97 | 125 | 0.0 | 4.0 | 0.00 | 0.00 | 0.00 | 38 | 1012.5 |
| 20260901000044 | 97 | 125 | 0.0 | 4.0 | 0.00 | 0.00 | 0.00 | 38 | 1012.6 |
| 20260831235520 | 97 | 126 | 2.0 | 6.0 | 0.00 | 0.00 | 0.00 | 37 | 1012.6 |
| 20260831235101 | 97 | 117 | 1.0 | 4.0 | 0.00 | 0.00 | 0.00 | 38 | 1012.6 |
| 20260831234508 | 98 | 115 | 1.0 | 8.0 | 0.00 | 0.00 | 0.00 | 37 | 1012.6 |
| 20260831234049 | 98 | 67 | 1.0 | 8.0 | 0.00 | 0.00 | 0.00 | 37 | 1012.6 |
| 20260831233529 | 98 | 107 | 1.0 | 6.0 | 0.00 | 0.00 | 0.00 | 37 | 1012.6 |
| 20260831233037 | 98 | 67 | 3.0 | 6.0 | 0.00 | 0.00 | 0.00 | 37 | 1012.6 |
| 20260831232513 | 98 | 96 | 2.0 | 7.0 | 0.00 | 0.00 | 0.00 | 36 | 1012.7 |
| 20260831232055 | 98 | 132 | 2.0 | 6.0 | 0.00 | 0.00 | 0.00 | 36 | 1012.6 |
| 20260831231504 | 98 | 80 | 2.0 | 8.0 | 0.00 | 0.00 | 0.00 | 37 | 1012.6 |
| 20260831231047 | 98 | 121 | 2.0 | 8.0 | 0.00 | 0.00 | 0.00 | 37 | 1012.6 |
| 20260831230526 | 98 | 127 | 2.0 | 9.0 | 0.00 | 0.00 | 0.00 | 35 | 1012.7 |
| 20260831230053 | 99 | 136 | 3.0 | 7.0 | 0.00 | 0.00 | 0.00 | 36 | 1012.7 |